Location: Narrabri
(30.3170°S, 149.7830°E)
Time: 17:47:51
(UTC+11:00)

Tiangong 2 - Visible Passes

Search period start: 22 January 2019 00:00
Search period end: 01 February 2019 00:00
Orbit: 380 x 392 km, 42.8° (Epoch: 21 January)

Date Brightness Start Highest point End Pass type
(mag) Time Alt. Az. Time Alt. Az. Time Alt. Az.
22 Jan 2.7 21:00:51 10° SW 21:03:38 27° SSE 21:05:42 14° ESE visible
22 Jan 4.2 22:37:30 10° WSW 22:37:57 13° W 22:37:57 13° W visible
23 Jan 1.0 21:38:17 10° WSW 21:41:29 76° NW 21:41:34 75° NNW visible
24 Jan 1.6 20:39:20 10° SW 20:42:27 49° SSE 20:45:15 12° ENE visible
24 Jan 4.0 22:17:02 10° W 22:17:30 12° WNW 22:17:30 12° WNW visible
25 Jan 2.3 21:17:13 10° WSW 21:20:07 32° NW 21:21:15 24° N visible
27 Jan 3.6 20:56:45 10° W 20:58:38 15° NW 21:00:31 10° N visible
